• En España
  • Lista de países
  • Para 7 días
  • Temperatura del agua
  • Mapa Satelital
  • El tiempo en el mapa
  • Informadores
  • user-avatar
    Iniciar sesión

    Tiempo cada hora Pleven

    Hoy, 25 Septiembre, Martes

    Tiempo Temperatura Precipitaciones Viento Presión Humedad
    00:00 +11°C° 0 mm 7 mps 751 mmHg 54%
    01:00 +11°C° 0 mm 6 mps 751 mmHg 54%
    02:00 +10°C° 0 mm 6 mps 751 mmHg 55%
    03:00 +10°C° 0 mm 6 mps 752 mmHg 57%
    04:00 +9°C° 0 mm 5 mps 752 mmHg 59%
    05:00 +8°C° 0 mm 5 mps 752 mmHg 61%
    06:00 +9°C° 0 mm 5 mps 753 mmHg 57%
    07:00 +10°C° 0 mm 6 mps 753 mmHg 53%
    08:00 +10°C° 0 mm 6 mps 753 mmHg 49%
    09:00 +13°C° 0 mm 6 mps 753 mmHg 43%
    10:00 +14°C° 0 mm 7 mps 753 mmHg 37%
    11:00 +16°C° 0 mm 7 mps 753 mmHg 30%
    12:00 +16°C° 0 mm 7 mps 753 mmHg 28%
    13:00 +17°C° 0 mm 7 mps 753 mmHg 26%
    14:00 +18°C° 0 mm 7 mps 753 mmHg 24%
    15:00 +17°C° 0 mm 6 mps 753 mmHg 25%
    16:00 +17°C° 0 mm 6 mps 753 mmHg 26%
    17:00 +16°C° 0 mm 5 mps 753 mmHg 26%
    18:00 +15°C° 0 mm 4 mps 754 mmHg 30%
    19:00 +13°C° 0 mm 4 mps 755 mmHg 34%
    20:00 +11°C° 0 mm 3 mps 756 mmHg 38%
    21:00 +10°C° 0 mm 2 mps 756 mmHg 40%
    22:00 +10°C° 0 mm 2 mps 757 mmHg 43%
    23:00 +9°C° 0 mm 2 mps 757 mmHg 45%

    Mañana, 26 Septiembre, Miércoles

    Tiempo Temperatura Precipitaciones Viento Presión Humedad
    00:00 +8°C° 0 mm 2 mps 757 mmHg 47%
    01:00 +9°C° 0 mm 1 mps 757 mmHg 49%
    02:00 +8°C° 0 mm 1 mps 758 mmHg 51%
    03:00 +8°C° 0 mm 1 mps 758 mmHg 53%
    04:00 +7°C° 0 mm 1 mps 758 mmHg 55%
    05:00 +7°C° 0 mm 1 mps 758 mmHg 56%
    06:00 +8°C° 0 mm 1 mps 758 mmHg 53%
    07:00 +9°C° 0 mm 1 mps 759 mmHg 50%
    08:00 +10°C° 0 mm 1 mps 759 mmHg 47%
    09:00 +12°C° 0 mm 1 mps 759 mmHg 43%
    10:00 +13°C° 0 mm 1 mps 759 mmHg 39%
    11:00 +15°C° 0 mm 2 mps 759 mmHg 35%
    12:00 +16°C° 0 mm 2 mps 758 mmHg 33%
    13:00 +16°C° 0 mm 2 mps 758 mmHg 31%
    14:00 +17°C° 0 mm 3 mps 757 mmHg 30%
    15:00 +17°C° 0 mm 2 mps 757 mmHg 30%
    16:00 +16°C° 0 mm 2 mps 757 mmHg 31%
    17:00 +16°C° 0 mm 2 mps 757 mmHg 31%
    18:00 +14°C° 0 mm 2 mps 757 mmHg 35%
    19:00 +12°C° 0 mm 1 mps 758 mmHg 40%
    20:00 +11°C° 0 mm 1 mps 758 mmHg 44%
    21:00 +10°C° 0 mm 1 mps 758 mmHg 46%
    22:00 +9°C° 0 mm 1 mps 758 mmHg 47%
    23:00 +9°C° 0 mm 1 mps 759 mmHg 48%

    Pasado mañana, 27 Septiembre, Jueves

    Tiempo Temperatura Precipitaciones Viento Presión Humedad
    00:00 +9°C° 0 mm 1 mps 759 mmHg 49%
    01:00 +8°C° 0 mm 1 mps 759 mmHg 50%
    02:00 +8°C° 0 mm 1 mps 758 mmHg 51%
    03:00 +7°C° 0 mm 1 mps 758 mmHg 52%
    04:00 +7°C° 0 mm 1 mps 758 mmHg 53%
    05:00 +7°C° 0 mm 1 mps 758 mmHg 55%
    06:00 +8°C° 0 mm 1 mps 758 mmHg 51%
    07:00 +9°C° 0 mm 1 mps 757 mmHg 47%
    08:00 +11°C° 0 mm 1 mps 757 mmHg 44%
    09:00 +12°C° 0 mm 1 mps 757 mmHg 39%
    10:00 +14°C° 0 mm 1 mps 757 mmHg 35%
    11:00 +16°C° 0 mm 2 mps 756 mmHg 31%
    12:00 +16°C° 0 mm 2 mps 756 mmHg 29%
    13:00 +17°C° 0 mm 2 mps 755 mmHg 27%
    14:00 +18°C° 0 mm 2 mps 754 mmHg 26%
    15:00 +18°C° 0 mm 2 mps 754 mmHg 26%
    16:00 +18°C° 0 mm 2 mps 753 mmHg 26%
    17:00 +17°C° 0 mm 2 mps 753 mmHg 27%
    18:00 +15°C° 0 mm 1 mps 753 mmHg 31%
    19:00 +13°C° 0 mm 1 mps 753 mmHg 35%
    20:00 +11°C° 0 mm 1 mps 753 mmHg 39%
    21:00 +11°C° 0 mm 1 mps 753 mmHg 40%
    22:00 +11°C° 0 mm 1 mps 753 mmHg 40%
    23:00 +10°C° 0 mm 1 mps 753 mmHg 40%

    28 Septiembre, Viernes

    Tiempo Temperatura Precipitaciones Viento Presión Humedad
    00:00 +10°C° 0 mm 1 mps 753 mmHg 41%
    01:00 +10°C° 0 mm 1 mps 752 mmHg 41%
    02:00 +9°C° 0 mm 1 mps 752 mmHg 42%
    03:00 +9°C° 0 mm 1 mps 752 mmHg 42%
    04:00 +9°C° 0 mm 1 mps 752 mmHg 43%
    05:00 +9°C° 0 mm 1 mps 752 mmHg 44%
    06:00 +10°C° 0 mm 1 mps 751 mmHg 42%
    07:00 +11°C° 0 mm 1 mps 751 mmHg 39%
    08:00 +13°C° 0 mm 1 mps 751 mmHg 37%
    09:00 +15°C° 0 mm 1 mps 751 mmHg 34%
    10:00 +18°C° 0 mm 1 mps 751 mmHg 31%
    11:00 +20°C° 0 mm 1 mps 750 mmHg 27%
    12:00 +20°C° 0 mm 2 mps 750 mmHg 28%
    13:00 +21°C° 0 mm 2 mps 749 mmHg 29%
    14:00 +21°C° 0 mm 2 mps 748 mmHg 29%
    15:00 +21°C° 0 mm 2 mps 748 mmHg 31%
    16:00 +21°C° 0 mm 2 mps 748 mmHg 33%
    17:00 +21°C° 0 mm 2 mps 747 mmHg 34%
    18:00 +19°C° 0 mm 2 mps 747 mmHg 39%
    19:00 +18°C° 0 mm 1 mps 747 mmHg 44%
    20:00 +15°C° 0 mm 1 mps 748 mmHg 48%
    21:00 +14°C° 0 mm 1 mps 748 mmHg 49%
    22:00 +14°C° 0 mm 1 mps 748 mmHg 50%
    23:00 +14°C° 0 mm 1 mps 748 mmHg 51%

    29 Septiembre, Sábado

    Tiempo Temperatura Precipitaciones Viento Presión Humedad
    00:00 +13°C° 0 mm 1 mps 747 mmHg 52%
    01:00 +13°C° 0 mm 1 mps 747 mmHg 54%
    02:00 +13°C° 0 mm 1 mps 747 mmHg 55%
    03:00 +13°C° 0 mm 1 mps 747 mmHg 56%
    04:00 +12°C° 0 mm 1 mps 747 mmHg 58%
    05:00 +12°C° 0 mm 1 mps 746 mmHg 59%
    06:00 +13°C° 0 mm 1 mps 746 mmHg 56%
    07:00 +14°C° 0 mm 1 mps 746 mmHg 53%
    08:00 +16°C° 0 mm 1 mps 746 mmHg 50%
    09:00 +19°C° 0 mm 1 mps 746 mmHg 46%
    10:00 +21°C° 0 mm 1 mps 746 mmHg 41%
    11:00 +23°C° 0 mm 2 mps 746 mmHg 37%
    12:00 +24°C° 0 mm 2 mps 746 mmHg 36%
    13:00 +24°C° 0 mm 2 mps 745 mmHg 35%
    14:00 +25°C° 0 mm 2 mps 745 mmHg 33%
    15:00 +25°C° 0 mm 1 mps 745 mmHg 34%
    16:00 +25°C° 0 mm 1 mps 745 mmHg 35%
    17:00 +24°C° 0 mm 1 mps 745 mmHg 36%
    18:00 +22°C° 0 mm 1 mps 745 mmHg 40%
    19:00 +19°C° 0 mm 2 mps 745 mmHg 45%
    20:00 +17°C° 0 mm 2 mps 746 mmHg 50%
    21:00 +17°C° 0 mm 2 mps 746 mmHg 50%
    22:00 +17°C° 0 mm 2 mps 746 mmHg 51%
    23:00 +16°C° 0 mm 2 mps 746 mmHg 52%

    30 Septiembre, Domingo

    Tiempo Temperatura Precipitaciones Viento Presión Humedad
    00:00 +16°C° 0 mm 2 mps 746 mmHg 52%
    01:00 +16°C° 0 mm 2 mps 747 mmHg 53%
    02:00 +15°C° 0 mm 2 mps 747 mmHg 54%
    03:00 +15°C° 0 mm 2 mps 747 mmHg 54%
    04:00 +15°C° 0 mm 2 mps 747 mmHg 55%
    05:00 +14°C° 0 mm 2 mps 747 mmHg 56%
    06:00 +15°C° 0 mm 2 mps 748 mmHg 54%
    07:00 +16°C° 0 mm 2 mps 748 mmHg 52%
    08:00 +17°C° 0 mm 2 mps 748 mmHg 50%
    09:00 +19°C° 0 mm 2 mps 748 mmHg 45%
    10:00 +21°C° 0 mm 2 mps 748 mmHg 41%
    11:00 +24°C° 0 mm 2 mps 748 mmHg 37%
    12:00 +24°C° 0 mm 2 mps 748 mmHg 35%
    13:00 +25°C° 0 mm 2 mps 748 mmHg 34%
    14:00 +26°C° 0 mm 2 mps 747 mmHg 32%
    15:00 +25°C° 0 mm 2 mps 747 mmHg 33%
    16:00 +25°C° 0 mm 2 mps 747 mmHg 34%
    17:00 +25°C° 0 mm 1 mps 747 mmHg 35%
    18:00 +23°C° 0 mm 1 mps 747 mmHg 40%
    19:00 +21°C° 0 mm 1 mps 747 mmHg 45%
    20:00 +19°C° 0 mm 1 mps 747 mmHg 50%
    21:00 +18°C° 0 mm 1 mps 747 mmHg 51%
    22:00 +18°C° 0 mm 1 mps 747 mmHg 53%
    23:00 +16°C° 0 mm 1 mps 747 mmHg 55%
    Mostrar más